User: anonymous   Login
Location: *
(17.3280°S, 114.7300°W)
Time: 23:57:36
(UTC+00:00)
Language:

Cosmos 1400 Rocket - Orbit

View from above orbital plane
View from above orbital plane
View from above satellite
View from above satellite

Ground track
Ground track

The orbit data is extracted from the following two-line orbital elements,

1 13403U 82079B   21340.76493518  .00000707  00000-0  44371-4 0  9997
2 13403  81.1702 196.8813 0032780 289.9617  69.8077 15.07619134142764
Epoch (UTC): 06 December 2021 18:21:30
Eccentricity: 0.0032780
inclination: 81.1702°
perigee height: 521 km
apogee height: 566 km
right ascension of ascending node: 196.8813°
argument of perigee: 289.9617°
revolutions per day: 15.07619134
mean anomaly at epoch: 69.8077°
orbit number at epoch: 14276

The dashed part of the orbit path shows where the satellite is in the earth's shadow,  

DLR